EW8702 Weather Reports


Display with metric or nautical units.
time (UTC)temp
F
wind
direction
speed
MPH
gust
MPH
rain 1hr
in
rain 24hr
in
rain mn
in
humidity
%
barometer
mb
20260831124145 47 0 0.0 0.0 0.00 0.00 0.00 78 1020.1
20260831122122 47 0 0.0 0.0 0.00 0.00 0.00 78 1020.0
20260831121122 47 0 0.0 0.0 0.00 0.00 0.00 78 1020.0
20260831120122 47 0 0.0 0.0 0.00 0.00 0.00 78 1020.1
20260831115122 48 0 0.0 0.0 0.00 0.00 0.00 78 1020.1
20260831114122 48 0 0.0 0.0 0.00 0.00 0.00 78 1020.0
20260831113122 48 290 0.0 1.0 0.00 0.00 0.00 78 1019.9
20260831112122 48 0 0.0 0.0 0.00 0.00 0.00 78 1019.9
20260831111122 48 0 0.0 0.0 0.00 0.00 0.00 77 1019.9
20260831110143 47 0 0.0 0.0 0.00 0.00 0.00 75 1019.7
20260831105122 48 290 0.0 1.0 0.00 0.00 0.00 75 1019.7
20260831104122 48 290 1.0 2.0 0.00 0.00 0.00 75 1019.7
20260831103122 48 290 0.0 1.0 0.00 0.00 0.00 75 1019.8
20260831102122 49 0 0.0 0.0 0.00 0.00 0.00 74 1019.8
20260831101122 49 290 0.0 1.0 0.00 0.00 0.00 74 1019.8
20260831100122 49 291 0.0 2.0 0.00 0.00 0.00 73 1019.6
20260831095122 49 0 0.0 0.0 0.00 0.00 0.00 72 1019.6
20260831094122 49 0 0.0 0.0 0.00 0.00 0.00 71 1019.6
20260831093143 50 0 0.0 0.0 0.00 0.00 0.00 71 1019.6
20260831092122 50 0 0.0 0.0 0.00 0.00 0.00 71 1019.6
20260831091122 50 0 0.0 0.0 0.00 0.00 0.00 70 1019.4
20260831090122 50 0 0.0 0.0 0.00 0.00 0.00 70 1019.4
20260831085143 50 0 0.0 0.0 0.00 0.00 0.00 69 1019.3
20260831084143 51 0 0.0 0.0 0.00 0.00 0.00 69 1019.3
20260831083122 51 0 0.0 0.0 0.00 0.00 0.00 69 1019.4
20260831082122 50 0 0.0 0.0 0.00 0.00 0.00 68 1019.3
20260831081122 50 326 0.0 1.0 0.00 0.00 0.00 68 1019.4
20260831080122 50 322 2.0 3.0 0.00 0.00 0.00 68 1019.4
20260831075143 51 314 0.0 2.0 0.00 0.00 0.00 68 1019.5
20260831074122 51 291 0.0 1.0 0.00 0.00 0.00 68 1019.5
20260831073122 51 291 0.0 1.0 0.00 0.00 0.00 68 1019.4
20260831072122 52 291 1.0 2.0 0.00 0.00 0.00 67 1019.5
20260831071122 52 291 1.0 3.0 0.00 0.00 0.00 67 1019.4
20260831070122 53 323 0.0 1.0 0.00 0.00 0.00 65 1019.4
20260831065122 53 302 0.0 2.0 0.00 0.00 0.00 65 1019.3
20260831064122 53 289 0.0 2.0 0.00 0.00 0.00 65 1019.3
20260831063122 54 0 0.0 0.0 0.00 0.00 0.00 64 1019.2
20260831062144 54 291 0.0 2.0 0.00 0.00 0.00 63 1019.2
20260831061122 54 0 0.0 0.0 0.00 0.00 0.00 62 1019.1
20260831060122 54 291 0.0 1.0 0.00 0.00 0.00 61 1019.2
20260831055122 55 0 0.0 0.0 0.00 0.00 0.00 61 1019.2
20260831054143 56 291 0.0 1.0 0.00 0.00 0.00 59 1019.2
20260831053122 56 0 0.0 0.0 0.00 0.00 0.00 57 1019.1
20260831052122 57 291 0.0 1.0 0.00 0.00 0.00 56 1019.0
20260831051122 57 290 1.0 2.0 0.00 0.00 0.00 55 1019.0
20260831050122 57 291 0.0 2.0 0.00 0.00 0.00 53 1019.0
20260831045122 57 290 0.0 1.0 0.00 0.00 0.00 53 1019.0
20260831041143 59 277 0.0 3.0 0.00 0.00 0.00 52 1018.7
20260831040143 60 0 0.0 1.0 0.00 0.00 0.00 49 1018.6
20260831035122 60 292 1.0 4.0 0.00 0.00 0.00 47 1018.5
20260831034122 60 333 2.0 6.0 0.00 0.00 0.00 45 1018.3
20260831033143 60 336 0.0 3.0 0.00 0.00 0.00 45 1018.2
20260831032122 60 334 2.0 6.0 0.00 0.00 0.00 44 1018.2
20260831031143 61 279 2.0 4.0 0.00 0.00 0.00 49 1017.9
20260831030143 61 279 0.0 1.0 0.00 0.00 0.00 47 1017.7
20260831025122 62 279 2.0 4.0 0.00 0.00 0.00 47 1017.6
20260831024122 63 279 0.0 3.0 0.00 0.00 0.00 46 1017.5
20260831023143 64 280 1.0 6.0 0.00 0.00 0.00 43 1017.2
20260831022143 65 281 0.0 1.0 0.00 0.00 0.00 43 1017.1
20260831021122 66 278 1.0 6.0 0.00 0.00 0.00 40 1017.1
20260831020122 68 308 1.0 4.0 0.00 0.00 0.00 41 1017.0
20260831015143 70 0 0.0 0.0 0.00 0.00 0.00 43 1017.0
20260831014122 71 0 0.0 0.0 0.00 0.00 0.00 41 1017.1
20260831013122 73 248 1.0 3.0 0.00 0.00 0.00 42 1017.1
20260831012122 74 0 0.0 1.0 0.00 0.00 0.00 39 1017.1
20260831011122 75 199 2.0 4.0 0.00 0.00 0.00 33 1017.2
20260831010129 75 200 1.0 2.0 0.00 0.00 0.00 30 1017.2
20260831005128 75 215 1.0 4.0 0.00 0.00 0.00 31 1017.2
20260831004122 75 263 2.0 4.0 0.00 0.00 0.00 31 1017.2
20260831003122 75 244 1.0 4.0 0.00 0.00 0.00 30 1017.3
20260831002122 75 253 2.0 6.0 0.00 0.00 0.00 31 1017.4
20260831001122 76 219 2.0 8.0 0.00 0.00 0.00 32 1017.4
20260831000122 76 186 2.0 7.0 0.00 0.00 0.00 33 1017.5
20260830235122 76 261 3.0 10.0 0.00 0.00 0.00 33 1017.5
20260830234122 76 273 3.0 7.0 0.00 0.00 0.00 34 1017.3
20260830233122 76 206 3.0 7.0 0.00 0.00 0.00 32 1017.3
20260830232122 76 205 1.0 3.0 0.00 0.00 0.00 32 1017.3
20260830231143 76 214 3.0 8.0 0.00 0.00 0.00 40 1017.3
20260830230122 77 202 4.0 9.0 0.00 0.00 0.00 34 1017.3
20260830225122 77 234 3.0 7.0 0.00 0.00 0.00 34 1017.4
20260830224143 78 252 2.0 6.0 0.00 0.00 0.00 34 1016.5
20260830223122 78 196 1.0 4.0 0.00 0.00 0.00 34 1016.5
20260830222122 77 206 3.0 6.0 0.00 0.00 0.00 34 1016.5
20260830221143 77 214 3.0 7.0 0.00 0.00 0.00 33 1017.6
20260830220122 77 245 3.0 9.0 0.00 0.00 0.00 34 1017.7
20260830215122 77 226 4.0 11.0 0.00 0.01 0.00 32 1017.7
20260830214122 76 273 5.0 11.0 0.00 0.01 0.00 33 1017.9
20260830213143 77 237 3.0 10.0 0.00 0.01 0.00 33 1017.8
20260830212122 77 267 4.0 14.0 0.00 0.01 0.00 35 1017.8
20260830211122 78 209 4.0 11.0 0.00 0.01 0.00 38 1017.9
20260830210143 77 199 2.0 8.0 0.00 0.01 0.00 38 1018.0
20260830205122 76 221 3.0 7.0 0.00 0.07 0.00 44 1018.1
20260830204122 76 238 3.0 9.0 0.00 0.07 0.00 39 1018.2
20260830203122 76 237 4.0 9.0 0.00 0.07 0.00 38 1018.0
20260830202122 76 269 4.0 9.0 0.00 0.07 0.00 42 1018.2
20260830201122 75 261 5.0 12.0 0.00 0.07 0.00 40 1018.2
20260830200122 75 249 5.0 15.0 0.00 0.07 0.00 40 1018.2
20260830195122 75 253 6.0 11.0 0.00 0.10 0.00 43 1018.2
20260830194122 75 246 4.0 12.0 0.00 0.10 0.00 45 1018.2
20260830193122 74 249 4.0 8.0 0.00 0.10 0.00 47 1018.2
20260830192143 73 244 3.0 11.0 0.00 0.10 0.00 47 1018.3
20260830191122 73 261 5.0 9.0 0.00 0.10 0.00 49 1018.2
20260830190122 73 258 3.0 7.0 0.00 0.10 0.00 50 1018.4
20260830185122 73 261 2.0 8.0 0.00 0.11 0.00 52 1018.2
20260830184122 74 267 4.0 14.0 0.00 0.11 0.00 52 1018.2
20260830183122 73 243 2.0 8.0 0.00 0.11 0.00 53 1018.3
20260830182122 74 257 3.0 11.0 0.00 0.11 0.00 48 1018.2
20260830181122 75 263 3.0 9.0 0.00 0.11 0.00 50 1018.3
20260830180122 75 198 1.0 5.0 0.00 0.11 0.00 53 1018.3
20260830175123 74 123 1.0 3.0 0.00 0.21 0.00 51 1018.5
20260830174122 74 0 0.0 1.0 0.00 0.21 0.00 55 1018.5
20260830173122 73 132 0.0 2.0 0.00 0.21 0.00 55 1018.7
20260830172122 72 132 1.0 5.0 0.00 0.21 0.00 55 1018.7
20260830171122 71 145 1.0 3.0 0.00 0.21 0.00 60 1018.7
20260830170143 71 115 0.0 2.0 0.00 0.21 0.00 58 1018.7
20260830165122 70 139 1.0 4.0 0.00 0.46 0.00 59 1018.6
20260830164123 69 146 1.0 4.0 0.00 0.46 0.00 64 1018.7
20260830163122 69 145 1.0 4.0 0.00 0.46 0.00 63 1018.7
20260830162123 68 128 1.0 4.0 0.00 0.46 0.00 69 1018.6
20260830161122 67 129 0.0 2.0 0.00 0.46 0.00 68 1018.6
20260830160122 66 170 1.0 3.0 0.00 0.46 0.00 71 1018.6
20260830155143 64 148 1.0 4.0 0.00 0.61 0.00 74 1018.7
20260830154122 63 0 0.0 1.0 0.00 0.61 0.00 79 1018.6
20260830153123 62 145 0.0 1.0 0.00 0.61 0.00 82 1018.6
20260830152123 61 138 0.0 2.0 0.00 0.61 0.00 83 1018.6
20260830151122 60 138 1.0 3.0 0.00 0.61 0.00 85 1018.6
20260830150144 59 128 1.0 2.0 0.00 0.61 0.00 85 1018.6
20260830145122 59 131 1.0 3.0 0.00 0.76 0.00 86 1018.6
20260830144122 59 123 1.0 3.0 0.00 0.76 0.00 86 1018.5
20260830143122 58 129 1.0 3.0 0.00 0.76 0.00 86 1018.4
20260830142122 58 210 0.0 2.0 0.00 0.76 0.00 86 1018.3
20260830141122 58 6 0.0 2.0 0.00 0.76 0.00 87 1018.5
20260830140122 58 348 0.0 2.0 0.00 0.76 0.00 86 1018.6
20260830135122 57 0 0.0 0.0 0.00 0.85 0.00 86 1018.9
20260830134122 57 0 0.0 0.0 0.00 0.85 0.00 86 1019.0
20260830133122 57 0 0.0 0.0 0.00 0.85 0.00 85 1018.6
20260830132123 57 0 0.0 0.0 0.00 0.85 0.00 85 1018.5
20260830131123 57 348 0.0 1.0 0.00 0.85 0.00 85 1018.5
20260830130123 57 0 0.0 1.0 0.00 0.85 0.00 85 1018.0
20260830125122 57 0 0.0 0.0 0.00 0.87 0.00 85 1017.9